Hot Springs, VA

1:18 PM EDT on July 22, 2017 (GMT -0400)
Ingalls

Weather History for KHSP - September, 2012

Change the Weather History Date:

Thursday, September 6, 2012

  Actual Average Record
Temperature  
Mean Temperature 70 °F -  
Max Temperature 75 °F 70 °F 86 °F (1998)
Min Temperature 64 °F 56 °F 42 °F (2000)
Cooling Degree Days 4    
Growing Degree Days 20 (Base 50)    
Moisture  
Dew Point 64 °F    
Average Humidity 82    
Maximum Humidity 94    
Minimum Humidity 61    
Precipitation  
Precipitation 0.00 in - - ()
Sea Level Pressure  
Sea Level Pressure 30.13 in    
Wind  
Wind Speed 4 mph (WSW)    
Max Wind Speed 8 mph    
Max Gust Speed -    
Visibility 10 miles    
Events      
Averages and records for this station are not official NWS values.
T = Trace of Precipitation, MM = Missing Value Source: NWS Daily Summary

Daily Weather History Graph

Daily Weather History Graph

Search for Another Location

Airport or City:

Trip Planner

Search our weather history database for the weather conditions in past years. The results will help you decide how hot, cold, wet, or windy it might be!

Date:

Astronomy

Sep. 06, 2012 Rise Set
Actual Time 6:53 AM EDT 7:40 PM EDT
Civil Twilight 6:27 AM EDT 8:07 PM EDT
Nautical Twilight 5:55 AM EDT 8:38 PM EDT
Astronomical Twilight 5:23 AM EDT 9:10 PM EDT
Moon 10:56 PM EDT (9/6) 12:44 PM EDT (9/6)
Length of Visible Light 13h 39m
Length of Day
12h 46m
Waning Gibbous, 67% of the Moon is Illuminated
Sep 6
Waning Gibbous
Sep 8
Last Quarter
Sep 15
New
Sep 22
First Quarter
Sep 29
Full

Hourly Weather History & Observations

Time (EDT) Temp. Dew Point Humidity Pressure Visibility Wind Dir Wind Speed Gust Speed Precip Events Conditions
8:58 AM 64.4 °F 60.8 °F 88% 30.10 in 10.0 mi Calm Calm - N/A   Mostly Cloudy
9:21 AM 64.4 °F 62.6 °F 94% 30.11 in 10.0 mi Calm Calm - N/A   Scattered Clouds
9:41 AM 66.2 °F 60.8 °F 83% 30.11 in 10.0 mi Calm Calm - N/A   Scattered Clouds
10:38 AM 66.2 °F 62.6 °F 88% 30.12 in 10.0 mi WNW 6.9 mph - N/A   Scattered Clouds
11:00 AM 66.2 °F 64.4 °F 94% 30.13 in 10.0 mi WNW 6.9 mph - N/A   Scattered Clouds
11:23 AM 66.2 °F 62.6 °F 88% 30.14 in 10.0 mi WNW 6.9 mph - N/A   Scattered Clouds
11:38 AM 66.2 °F 62.6 °F 88% 30.14 in 10.0 mi NW 6.9 mph - N/A   Mostly Cloudy
12:20 PM 68.0 °F 64.4 °F 88% 30.15 in 10.0 mi NW 4.6 mph - N/A   Mostly Cloudy
12:38 PM 66.2 °F 64.4 °F 94% 30.14 in 10.0 mi WNW 6.9 mph - N/A   Overcast
12:58 PM 68.0 °F 64.4 °F 88% 30.14 in 10.0 mi NW 8.1 mph - N/A   Mostly Cloudy
1:18 PM 69.8 °F 64.4 °F 83% 30.14 in 10.0 mi NW 5.8 mph - N/A   Mostly Cloudy
2:02 PM 71.6 °F 64.4 °F 78% 30.13 in 10.0 mi NNW 5.8 mph - N/A   Scattered Clouds
2:18 PM 73.4 °F 64.4 °F 73% 30.13 in 10.0 mi WNW 5.8 mph - N/A   Clear
2:40 PM 73.4 °F 64.4 °F 73% 30.13 in 10.0 mi West 3.5 mph - N/A   Scattered Clouds
3:05 PM 73.4 °F 60.8 °F 65% 30.13 in 10.0 mi West 3.5 mph - N/A   Scattered Clouds
3:20 PM 75.2 °F 62.6 °F 65% 30.13 in 10.0 mi West 4.6 mph - N/A   Scattered Clouds
3:38 PM 75.2 °F 62.6 °F 65% 30.12 in 10.0 mi Calm Calm - N/A   Scattered Clouds
3:58 PM 75.2 °F 60.8 °F 61% 30.12 in 10.0 mi Calm Calm - N/A   Clear
4:18 PM 73.4 °F 66.2 °F 78% 30.12 in 10.0 mi ESE 4.6 mph - N/A   Clear
4:38 PM 71.6 °F 64.4 °F 78% 30.12 in 10.0 mi South 3.5 mph - N/A   Scattered Clouds
4:58 PM 73.4 °F 66.2 °F 78% 30.11 in 10.0 mi SSW 3.5 mph - N/A   Scattered Clouds
5:22 PM 73.4 °F 66.2 °F 78% 30.11 in 10.0 mi South 5.8 mph - N/A   Scattered Clouds
5:38 PM 73.4 °F 66.2 °F 78% 30.11 in 10.0 mi SE 5.8 mph - N/A   Clear
5:58 PM 73.4 °F 66.2 °F 78% 30.11 in 10.0 mi SSE 5.8 mph - N/A   Clear
6:18 PM 71.6 °F 66.2 °F 83% 30.12 in 10.0 mi SSE 4.6 mph - N/A   Clear
6:40 PM 71.6 °F 66.2 °F 83% 30.12 in 10.0 mi South 6.9 mph - N/A   Clear
7:00 PM 69.8 °F 66.2 °F 88% 30.12 in 10.0 mi South 4.6 mph - N/A   Clear
7:20 PM 69.8 °F 64.4 °F 83% 30.12 in 10.0 mi South 4.6 mph - N/A   Clear
7:38 PM 69.8 °F 64.4 °F 83% 30.12 in 10.0 mi South 4.6 mph - N/A   Clear
8:04 PM 69.8 °F 64.4 °F 83% 30.13 in 10.0 mi SSW 5.8 mph - N/A   Mostly Cloudy
8:22 PM 68.0 °F 62.6 °F 83% 30.13 in 10.0 mi South 8.1 mph - N/A   Mostly Cloudy
8:40 PM 68.0 °F 62.6 °F 83% 30.14 in 10.0 mi SSW 6.9 mph - N/A   Scattered Clouds
9:22 PM 66.2 °F 60.8 °F 83% 30.15 in 10.0 mi WSW 6.9 mph - N/A   Scattered Clouds
10:24 PM 64.4 °F 60.8 °F 88% 30.16 in 10.0 mi West 5.8 mph - N/A   Clear
11:40 PM 64.4 °F 62.6 °F 94% 30.15 in 10.0 mi WSW 6.9 mph - N/A   Clear